Time,TemperatureF,DewpointF,PressureIn,WindDirection,WindDirectionDegrees,WindSpeedMPH,WindSpeedGustMPH,Humidity,HourlyPrecipIn,Conditions,Clouds,dailyrainin,SoftwareType,DateUTC
2013-03-04 00:00:00,19.1,-8.7,29.03,NW,324,0.0,0.0,28,0.00,CLR,,0.00,WeatherDisplay:10.37,2013-03-04 05:00:00,
2013-03-04 00:05:00,19.0,-7.4,29.03,NW,324,0.0,0.0,30,0.00,CLR,,0.00,WeatherDisplay:10.37,2013-03-04 05:05:00,
2013-03-04 00:10:00,19.2,-7.2,29.03,NW,324,0.0,0.0,30,0.00,CLR,,0.00,WeatherDisplay:10.37,2013-03-04 05:10:00,
2013-03-04 00:15:00,19.2,-7.2,29.03,NW,324,0.0,0.0,30,0.00,CLR,,0.00,WeatherDisplay:10.37,2013-03-04 05:15:00,
2013-03-04 00:20:00,19.2,-7.2,29.03,NW,324,0.0,0.0,30,0.00,CLR,,0.00,WeatherDisplay:10.37,2013-03-04 05:20:00,
2013-03-04 00:25:00,19.0,-7.4,29.03,NW,324,0.0,0.0,30,0.00,CLR,,0.00,WeatherDisplay:10.37,2013-03-04 05:25:00,
2013-03-04 00:30:00,19.0,-7.4,29.03,NW,324,0.0,0.0,30,0.00,CLR,,0.00,WeatherDisplay:10.37,2013-03-04 05:30:00,
2013-03-04 00:35:00,18.7,-7.7,29.03,NW,324,0.0,0.0,30,0.00,CLR,,0.00,WeatherDisplay:10.37,2013-03-04 05:35:00,
2013-03-04 00:40:00,18.5,-7.8,29.06,NW,324,0.0,0.0,30,0.00,CLR,,0.00,WeatherDisplay:10.37,2013-03-04 05:40:00,
2013-03-04 00:45:00,18.3,-8.0,29.06,NW,324,0.0,0.0,30,0.00,CLR,,0.00,WeatherDisplay:10.37,2013-03-04 05:45:00,
2013-03-04 00:50:00,18.3,-8.0,29.06,NW,324,0.0,0.0,30,0.00,CLR,,0.00,WeatherDisplay:10.37,2013-03-04 05:50:00,
2013-03-04 00:55:00,18.1,-8.2,29.03,NW,324,0.0,0.0,30,0.00,CLR,,0.00,WeatherDisplay:10.37,2013-03-04 05:55:00,
2013-03-04 01:00:00,18.1,-8.2,29.03,NW,324,0.0,0.0,30,0.00,CLR,,0.00,WeatherDisplay:10.37,2013-03-04 06:00:00,
2013-03-04 01:05:00,18.1,-8.2,29.03,NW,324,0.0,0.0,30,0.00,CLR,,0.00,WeatherDisplay:10.37,2013-03-04 06:05:00,
2013-03-04 01:10:00,18.1,-8.2,29.06,NW,324,0.0,0.0,30,0.00,CLR,,0.00,WeatherDisplay:10.37,2013-03-04 06:10:00,
2013-03-04 01:15:00,17.9,-8.4,29.06,NW,324,0.0,0.0,30,0.00,CLR,,0.00,WeatherDisplay:10.37,2013-03-04 06:15:00,
2013-03-04 01:20:00,17.8,-8.5,29.06,NW,324,0.0,0.0,30,0.00,CLR,,0.00,WeatherDisplay:10.37,2013-03-04 06:20:00,
2013-03-04 01:25:00,17.6,-8.0,29.03,NW,324,0.0,0.0,31,0.00,CLR,,0.00,WeatherDisplay:10.37,2013-03-04 06:25:00,
2013-03-04 01:30:00,17.6,-8.0,29.03,NW,324,0.0,0.0,31,0.00,CLR,,0.00,WeatherDisplay:10.37,2013-03-04 06:30:00,
2013-03-04 01:35:00,17.6,-6.7,29.03,NW,324,0.0,0.0,33,0.00,CLR,,0.00,WeatherDisplay:10.37,2013-03-04 06:35:00,
2013-03-04 01:40:00,17.6,-6.6,29.06,NW,324,0.0,0.0,33,0.00,CLR,,0.00,WeatherDisplay:10.37,2013-03-04 06:40:00,
2013-03-04 01:45:00,17.6,-6.7,29.06,NW,324,0.0,0.0,33,0.00,CLR,,0.00,WeatherDisplay:10.37,2013-03-04 06:45:00,
2013-03-04 01:50:00,17.4,-6.8,29.06,NW,324,0.0,0.0,33,0.00,CLR,,0.00,WeatherDisplay:10.37,2013-03-04 06:50:00,
2013-03-04 01:55:00,17.4,-6.8,29.06,NW,324,0.0,0.0,33,0.00,CLR,,0.00,WeatherDisplay:10.37,2013-03-04 06:55:00,
2013-03-04 02:00:00,17.4,-6.8,29.06,NNW,334,0.0,2.0,33,0.00,CLR,,0.00,WeatherDisplay:10.37,2013-03-04 07:00:00,
2013-03-04 02:05:00,17.4,-6.8,29.06,NNE,23,0.0,0.0,33,0.00,CLR,,0.00,WeatherDisplay:10.37,2013-03-04 07:05:00,
2013-03-04 02:10:00,17.2,-7.0,29.06,SSE,149,0.0,0.0,33,0.00,CLR,,0.00,WeatherDisplay:10.37,2013-03-04 07:10:00,
2013-03-04 02:20:00,16.9,-7.3,29.06,SSE,155,0.0,0.0,33,0.00,CLR,,0.00,WeatherDisplay:10.37,2013-03-04 07:20:00,
2013-03-04 02:25:00,16.7,-7.5,29.06,SSE,155,0.0,0.0,33,0.00,CLR,,0.00,WeatherDisplay:10.37,2013-03-04 07:25:00,
2013-03-04 02:30:00,16.6,-7.0,29.06,SSE,155,0.0,0.0,34,0.00,CLR,,0.00,WeatherDisplay:10.37,2013-03-04 07:30:00,
2013-03-04 02:35:00,16.5,-7.0,29.06,SSE,155,0.0,0.0,34,0.00,CLR,,0.00,WeatherDisplay:10.37,2013-03-04 07:35:00,
2013-03-04 02:40:00,16.5,-7.0,29.06,SSE,155,0.0,0.0,34,0.00,CLR,,0.00,WeatherDisplay:10.37,2013-03-04 07:40:00,
2013-03-04 02:45:00,16.5,-7.0,29.06,SSE,155,0.0,0.0,34,0.00,CLR,,0.00,WeatherDisplay:10.37,2013-03-04 07:45:00,
2013-03-04 02:50:00,16.5,-7.0,29.06,SSE,155,0.0,0.0,34,0.00,CLR,,0.00,WeatherDisplay:10.37,2013-03-04 07:50:00,
2013-03-04 02:55:00,16.5,-7.0,29.06,SSE,155,0.0,0.0,34,0.00,CLR,,0.00,WeatherDisplay:10.37,2013-03-04 07:55:00,
2013-03-04 03:05:00,16.7,-6.9,29.06,SSE,155,0.0,0.0,34,0.00,CLR,,0.00,WeatherDisplay:10.37,2013-03-04 08:05:00,
2013-03-04 03:10:00,16.7,-6.9,29.06,SSE,155,0.0,0.0,34,0.00,CLR,,0.00,WeatherDisplay:10.37,2013-03-04 08:10:00,
2013-03-04 03:20:00,16.5,-7.0,29.06,SSE,155,0.0,0.0,34,0.00,CLR,,0.00,WeatherDisplay:10.37,2013-03-04 08:20:00,
2013-03-04 03:25:00,16.2,-7.3,29.06,SSE,155,0.0,0.0,34,0.00,CLR,,0.00,WeatherDisplay:10.37,2013-03-04 08:25:00,
2013-03-04 03:30:00,16.2,-7.3,29.06,SSE,155,0.0,0.0,34,0.00,CLR,,0.00,WeatherDisplay:10.37,2013-03-04 08:30:00,
2013-03-04 03:35:00,16.2,-7.3,29.06,SSE,155,0.0,0.0,34,0.00,CLR,,0.00,WeatherDisplay:10.37,2013-03-04 08:35:00,
2013-03-04 03:40:00,16.0,-7.5,29.06,SSE,155,0.0,0.0,34,0.00,CLR,,0.00,WeatherDisplay:10.37,2013-03-04 08:40:00,
2013-03-04 03:45:00,15.8,-7.7,29.06,SSE,155,0.0,0.0,34,0.00,CLR,,0.00,WeatherDisplay:10.37,2013-03-04 08:45:00,
2013-03-04 03:50:00,15.6,-7.8,29.06,SSE,155,0.0,0.0,34,0.00,CLR,,0.00,WeatherDisplay:10.37,2013-03-04 08:50:00,
2013-03-04 03:55:00,15.4,-8.0,29.06,SSE,155,0.0,0.0,34,0.00,CLR,,0.00,WeatherDisplay:10.37,2013-03-04 08:55:00,
2013-03-04 04:00:00,15.4,-8.0,29.06,SSE,155,0.0,0.0,34,0.00,CLR,,0.00,WeatherDisplay:10.37,2013-03-04 09:00:00,
2013-03-04 04:10:00,15.1,-8.3,29.06,SSE,155,0.0,0.0,34,0.00,CLR,,0.00,WeatherDisplay:10.37,2013-03-04 09:10:00,
2013-03-04 04:15:00,14.9,-8.5,29.06,SSE,155,0.0,0.0,34,0.00,CLR,,0.00,WeatherDisplay:10.37,2013-03-04 09:15:00,
2013-03-04 04:20:00,15.1,-8.3,29.06,SSE,155,0.0,0.0,34,0.00,CLR,,0.00,WeatherDisplay:10.37,2013-03-04 09:20:00,
2013-03-04 04:25:00,15.1,-8.3,29.06,SSE,155,0.0,0.0,34,0.00,CLR,,0.00,WeatherDisplay:10.37,2013-03-04 09:25:00,
2013-03-04 04:30:00,15.1,-8.3,29.06,SSE,155,0.0,0.0,34,0.00,CLR,,0.00,WeatherDisplay:10.37,2013-03-04 09:30:00,
2013-03-04 04:35:00,15.1,-8.3,29.06,SSE,155,0.0,0.0,34,0.00,CLR,,0.00,WeatherDisplay:10.37,2013-03-04 09:35:00,
2013-03-04 04:40:00,14.9,-8.5,29.06,SSE,155,0.0,0.0,34,0.00,CLR,,0.00,WeatherDisplay:10.37,2013-03-04 09:40:00,
2013-03-04 04:45:00,14.5,-8.8,29.06,SSE,155,0.0,0.0,34,0.00,CLR,,0.00,WeatherDisplay:10.37,2013-03-04 09:45:00,
2013-03-04 04:50:00,14.9,-8.5,29.06,SSE,155,0.0,0.0,34,0.00,CLR,,0.00,WeatherDisplay:10.37,2013-03-04 09:50:00,
2013-03-04 04:55:00,14.9,-8.5,29.06,SSE,155,0.0,0.0,34,0.00,CLR,,0.00,WeatherDisplay:10.37,2013-03-04 09:55:00,
2013-03-04 05:00:00,14.7,-8.6,29.06,SSE,155,0.0,0.0,34,0.00,CLR,,0.00,WeatherDisplay:10.37,2013-03-04 10:00:00,
2013-03-04 05:05:00,14.5,-8.8,29.06,SSE,155,0.0,0.0,34,0.00,CLR,,0.00,WeatherDisplay:10.37,2013-03-04 10:05:00,
2013-03-04 05:10:00,14.7,-8.0,29.06,SSE,155,0.0,0.0,35,0.00,CLR,,0.00,WeatherDisplay:10.37,2013-03-04 10:10:00,
2013-03-04 05:15:00,14.7,-8.0,29.06,SSE,155,0.0,0.0,35,0.00,CLR,,0.00,WeatherDisplay:10.37,2013-03-04 10:15:00,
2013-03-04 05:20:00,14.7,-8.0,29.06,SSE,155,0.0,0.0,35,0.00,CLR,,0.00,WeatherDisplay:10.37,2013-03-04 10:20:00,
2013-03-04 05:25:00,14.5,-8.8,29.06,SSE,155,0.0,0.0,34,0.00,CLR,,0.00,WeatherDisplay:10.37,2013-03-04 10:25:00,
2013-03-04 05:35:00,14.5,-8.2,29.06,SSE,155,0.0,0.0,35,0.00,CLR,,0.00,WeatherDisplay:10.37,2013-03-04 10:35:00,
2013-03-04 05:40:00,14.8,-8.0,29.09,SSE,155,0.0,0.0,35,0.00,CLR,,0.00,WeatherDisplay:10.37,2013-03-04 10:40:00,
2013-03-04 05:45:00,15.0,-7.8,29.09,SSE,155,0.0,0.0,35,0.00,CLR,,0.00,WeatherDisplay:10.37,2013-03-04 10:45:00,
2013-03-04 05:50:00,15.1,-7.7,29.09,SSE,155,0.0,0.0,35,0.00,CLR,,0.00,WeatherDisplay:10.37,2013-03-04 10:50:00,
2013-03-04 05:55:00,15.3,-7.5,29.09,SSE,155,0.0,0.0,35,0.00,CLR,,0.00,WeatherDisplay:10.37,2013-03-04 10:55:00,
2013-03-04 06:00:00,15.2,-7.6,29.09,SSE,155,0.0,0.0,35,0.00,CLR,,0.00,WeatherDisplay:10.37,2013-03-04 11:00:00,
2013-03-04 06:05:00,15.1,-7.7,29.09,SSE,155,0.0,0.0,35,0.00,CLR,,0.00,WeatherDisplay:10.37,2013-03-04 11:05:00,
2013-03-04 06:10:00,14.9,-7.9,29.09,SSE,155,0.0,0.0,35,0.00,CLR,,0.00,WeatherDisplay:10.37,2013-03-04 11:10:00,
2013-03-04 06:15:00,14.9,-7.9,29.09,SSE,155,0.0,0.0,35,0.00,CLR,,0.00,WeatherDisplay:10.37,2013-03-04 11:15:00,
2013-03-04 06:20:00,14.9,-7.9,29.09,SSE,155,0.0,0.0,35,0.00,CLR,,0.00,WeatherDisplay:10.37,2013-03-04 11:20:00,
2013-03-04 06:25:00,14.9,-7.9,29.06,SSE,155,0.0,0.0,35,0.00,CLR,,0.00,WeatherDisplay:10.37,2013-03-04 11:25:00,
2013-03-04 06:30:00,15.1,-7.7,29.06,SSE,155,0.0,0.0,35,0.00,CLR,,0.00,WeatherDisplay:10.37,2013-03-04 11:30:00,
2013-03-04 06:35:00,15.1,-7.7,29.06,SSE,155,0.0,0.0,35,0.00,CLR,,0.00,WeatherDisplay:10.37,2013-03-04 11:35:00,
2013-03-04 06:40:00,15.1,-7.7,29.06,SSE,155,0.0,0.0,35,0.00,CLR,,0.00,WeatherDisplay:10.37,2013-03-04 11:40:00,
2013-03-04 06:45:00,15.1,-7.7,29.06,SSE,155,0.0,0.0,35,0.00,CLR,,0.00,WeatherDisplay:10.37,2013-03-04 11:45:00,
2013-03-04 06:50:00,15.3,-7.5,29.06,SSE,155,0.0,0.0,35,0.00,CLR,,0.00,WeatherDisplay:10.37,2013-03-04 11:50:00,
2013-03-04 06:55:00,15.3,-7.5,29.06,SSE,155,0.0,0.0,35,0.00,CLR,,0.00,WeatherDisplay:10.37,2013-03-04 11:55:00,
2013-03-04 07:00:00,15.3,-7.5,29.06,SSE,155,0.0,0.0,35,0.00,CLR,,0.00,WeatherDisplay:10.37,2013-03-04 12:00:00,
2013-03-04 07:05:00,15.3,-7.5,29.06,SSE,155,0.0,0.0,35,0.00,CLR,,0.00,WeatherDisplay:10.37,2013-03-04 12:05:00,
2013-03-04 07:10:00,15.4,-7.4,29.09,SSE,155,0.0,0.0,35,0.00,CLR,,0.00,WeatherDisplay:10.37,2013-03-04 12:10:00,
2013-03-04 07:15:00,15.4,-7.4,29.09,SSE,155,0.0,0.0,35,0.00,CLR,,0.00,WeatherDisplay:10.37,2013-03-04 12:15:00,
2013-03-04 07:20:00,15.9,-7.0,29.09,SSE,155,0.0,0.0,35,0.00,CLR,,0.00,WeatherDisplay:10.37,2013-03-04 12:20:00,
2013-03-04 07:25:00,16.2,-7.3,29.09,SSE,155,0.0,0.0,34,0.00,CLR,,0.00,WeatherDisplay:10.37,2013-03-04 12:25:00,
2013-03-04 07:30:00,17.1,-5.9,29.09,SSE,155,0.0,0.0,35,0.00,CLR,,0.00,WeatherDisplay:10.37,2013-03-04 12:30:00,
2013-03-04 07:35:00,18.3,-5.4,29.09,SSE,155,0.0,0.0,34,0.00,CLR,,0.00,WeatherDisplay:10.37,2013-03-04 12:35:00,
2013-03-04 07:40:00,19.4,-4.5,29.09,SSE,155,0.0,0.0,34,0.00,CLR,,0.00,WeatherDisplay:10.37,2013-03-04 12:40:00,
2013-03-04 07:45:00,20.5,-3.5,29.09,SSE,155,0.0,0.0,34,0.00,CLR,,0.00,WeatherDisplay:10.37,2013-03-04 12:45:00,
2013-03-04 07:50:00,21.7,-2.4,29.09,SSE,155,0.0,0.0,34,0.00,CLR,,0.00,WeatherDisplay:10.37,2013-03-04 12:50:00,
2013-03-04 07:55:00,22.6,-1.6,29.09,SSE,155,0.0,0.0,34,0.00,CLR,,0.00,WeatherDisplay:10.37,2013-03-04 12:55:00,
2013-03-04 08:00:00,23.3,-1.6,29.09,SSE,155,0.0,0.0,33,0.00,CLR,,0.00,WeatherDisplay:10.37,2013-03-04 13:00:00,
2013-03-04 08:05:00,23.4,-1.5,29.09,SSE,155,0.0,0.0,33,0.00,CLR,,0.00,WeatherDisplay:10.37,2013-03-04 13:05:00,
2013-03-04 08:10:00,23.4,-1.6,29.09,SSE,155,0.0,2.0,33,0.00,CLR,,0.00,WeatherDisplay:10.37,2013-03-04 13:10:00,
2013-03-04 08:15:00,23.2,-1.7,29.09,SSE,155,0.0,3.0,33,0.00,CLR,,0.00,WeatherDisplay:10.37,2013-03-04 13:15:00,
2013-03-04 08:20:00,23.3,-2.3,29.09,SSE,155,0.0,3.0,32,0.00,CLR,,0.00,WeatherDisplay:10.37,2013-03-04 13:20:00,
2013-03-04 08:25:00,23.5,-2.1,29.06,SSE,155,0.0,0.0,32,0.00,CLR,,0.00,WeatherDisplay:10.37,2013-03-04 13:25:00,
2013-03-04 08:30:00,23.5,-4.1,29.06,SSE,155,0.0,0.0,29,0.00,CLR,,0.00,WeatherDisplay:10.37,2013-03-04 13:30:00,
2013-03-04 08:35:00,23.7,-5.5,29.06,SSE,155,0.0,3.0,27,0.00,CLR,,0.00,WeatherDisplay:10.37,2013-03-04 13:35:00,
2013-03-04 08:40:00,23.9,-7.7,29.09,SE,130,1.0,3.0,24,0.00,CLR,,0.00,WeatherDisplay:10.37,2013-03-04 13:40:00,
2013-03-04 08:45:00,24.3,-5.0,29.09,ESE,105,0.0,0.0,27,0.00,CLR,,0.00,WeatherDisplay:10.37,2013-03-04 13:45:00,
2013-03-04 08:50:00,24.4,-7.3,29.09,East,96,0.0,4.0,24,0.00,CLR,,0.00,WeatherDisplay:10.37,2013-03-04 13:50:00,
2013-03-04 08:55:00,24.8,-7.0,29.09,East,91,0.0,3.0,24,0.00,CLR,,0.00,WeatherDisplay:10.37,2013-03-04 13:55:00,
2013-03-04 09:00:00,25.3,-6.5,29.09,East,91,0.0,3.0,24,0.00,CLR,,0.00,WeatherDisplay:10.37,2013-03-04 14:00:00,
2013-03-04 09:10:00,26.2,-5.7,29.09,ESE,115,2.0,4.0,24,0.00,CLR,,0.00,WeatherDisplay:10.37,2013-03-04 14:10:00,
2013-03-04 09:15:00,27.2,-5.8,29.09,SE,134,2.0,4.0,23,0.00,CLR,,0.00,WeatherDisplay:10.37,2013-03-04 14:15:00,
2013-03-04 09:20:00,28.4,-4.7,29.09,SE,139,3.0,5.0,23,0.00,CLR,,0.00,WeatherDisplay:10.37,2013-03-04 14:20:00,
2013-03-04 09:30:00,30.4,-6.0,29.09,SSE,149,2.0,5.0,20,0.00,CLR,,0.00,WeatherDisplay:10.37,2013-03-04 14:30:00,
2013-03-04 09:35:00,31.0,-5.4,29.09,SE,131,3.0,6.0,20,0.00,CLR,,0.00,WeatherDisplay:10.37,2013-03-04 14:35:00,
2013-03-04 09:40:00,31.3,-5.2,29.09,SE,124,2.0,4.0,20,0.00,CLR,,0.00,WeatherDisplay:10.37,2013-03-04 14:40:00,
2013-03-04 09:45:00,31.7,-4.9,29.09,SE,130,2.0,4.0,20,0.00,CLR,,0.00,WeatherDisplay:10.37,2013-03-04 14:45:00,
2013-03-04 09:50:00,32.2,-4.4,29.09,SE,130,1.0,4.0,20,0.00,CLR,,0.00,WeatherDisplay:10.37,2013-03-04 14:50:00,
2013-03-04 09:55:00,31.8,-4.8,29.09,ESE,116,3.0,6.0,20,0.00,CLR,,0.00,WeatherDisplay:10.37,2013-03-04 14:55:00,
2013-03-04 10:00:00,31.4,-5.1,29.09,East,100,3.0,6.0,20,0.00,CLR,,0.00,WeatherDisplay:10.37,2013-03-04 15:00:00,
2013-03-04 10:05:00,32.4,-4.3,29.09,ESE,105,2.0,4.0,20,0.00,CLR,,0.00,WeatherDisplay:10.37,2013-03-04 15:05:00,
2013-03-04 10:10:00,32.7,-4.1,29.09,East,99,2.0,5.0,20,0.00,CLR,,0.00,WeatherDisplay:10.37,2013-03-04 15:10:00,
2013-03-04 10:15:00,32.9,-3.9,29.09,East,87,2.0,6.0,20,0.00,CLR,,0.00,WeatherDisplay:10.37,2013-03-04 15:15:00,
2013-03-04 10:20:00,33.1,-3.7,29.09,ESE,109,2.0,4.0,20,0.00,CLR,,0.00,WeatherDisplay:10.37,2013-03-04 15:20:00,
2013-03-04 10:30:00,34.8,-2.3,29.06,SE,135,2.0,4.0,20,0.00,CLR,,0.00,WeatherDisplay:10.37,2013-03-04 15:30:00,
2013-03-04 10:35:00,35.3,-1.9,29.06,SE,138,2.0,6.0,20,0.00,CLR,,0.00,WeatherDisplay:10.37,2013-03-04 15:35:00,
2013-03-04 10:40:00,35.5,-2.8,29.06,ESE,121,2.0,5.0,19,0.00,CLR,,0.00,WeatherDisplay:10.37,2013-03-04 15:40:00,
2013-03-04 10:45:00,35.2,-1.9,29.06,East,101,0.0,5.0,20,0.00,CLR,,0.00,WeatherDisplay:10.37,2013-03-04 15:45:00,
2013-03-04 10:50:00,35.5,-2.7,29.06,ESE,107,3.0,5.0,19,0.00,CLR,,0.00,WeatherDisplay:10.37,2013-03-04 15:50:00,
2013-03-04 10:55:00,36.3,-2.1,29.06,SE,129,3.0,6.0,19,0.00,CLR,,0.00,WeatherDisplay:10.37,2013-03-04 15:55:00,
2013-03-04 11:00:00,37.2,-1.4,29.06,SE,139,1.0,6.0,19,0.00,CLR,,0.00,WeatherDisplay:10.37,2013-03-04 16:00:00,
2013-03-04 11:10:00,37.9,-0.7,29.06,SSE,163,0.0,4.0,19,0.00,CLR,,0.00,WeatherDisplay:10.37,2013-03-04 16:10:00,
2013-03-04 11:15:00,38.3,-0.5,29.06,SSE,153,3.0,4.0,19,0.00,CLR,,0.00,WeatherDisplay:10.37,2013-03-04 16:15:00,
2013-03-04 11:20:00,38.7,-0.1,29.06,SSE,153,3.0,6.0,19,0.00,CLR,,0.00,WeatherDisplay:10.37,2013-03-04 16:20:00,
2013-03-04 11:25:00,38.7,-0.1,29.06,ESE,122,3.0,5.0,19,0.00,CLR,,0.00,WeatherDisplay:10.37,2013-03-04 16:25:00,
2013-03-04 11:30:00,38.7,-0.1,29.06,ESE,108,2.0,5.0,19,0.00,CLR,,0.00,WeatherDisplay:10.37,2013-03-04 16:30:00,
2013-03-04 11:35:00,38.5,-0.2,29.06,ESE,116,0.0,6.0,19,0.00,CLR,,0.00,WeatherDisplay:10.37,2013-03-04 16:35:00,
2013-03-04 11:40:00,39.0,0.1,29.06,SE,126,2.0,6.0,19,0.00,CLR,,0.00,WeatherDisplay:10.37,2013-03-04 16:40:00,
2013-03-04 11:45:00,39.0,0.2,29.06,ESE,114,2.0,5.0,19,0.00,CLR,,0.00,WeatherDisplay:10.37,2013-03-04 16:45:00,
2013-03-04 11:50:00,39.2,-0.8,29.06,ESE,117,1.0,4.0,18,0.00,CLR,,0.00,WeatherDisplay:10.37,2013-03-04 16:50:00,
2013-03-04 11:55:00,39.4,-0.7,29.06,SE,146,0.0,4.0,18,0.00,CLR,,0.00,WeatherDisplay:10.37,2013-03-04 16:55:00,
2013-03-04 12:00:00,39.2,-0.8,29.06,SE,133,1.0,4.0,18,0.00,CLR,,0.00,WeatherDisplay:10.37,2013-03-04 17:00:00,
2013-03-04 12:05:00,39.0,0.2,29.06,ESE,118,5.0,5.0,19,0.00,CLR,,0.00,WeatherDisplay:10.37,2013-03-04 17:05:00,
2013-03-04 12:10:00,39.4,-0.7,29.06,ESE,120,0.0,5.0,18,0.00,CLR,,0.00,WeatherDisplay:10.37,2013-03-04 17:10:00,
2013-03-04 12:15:00,39.7,-0.4,29.06,SE,126,3.0,6.0,18,0.00,CLR,,0.00,WeatherDisplay:10.37,2013-03-04 17:15:00,
2013-03-04 12:20:00,40.0,-0.2,29.06,SSE,147,2.0,6.0,18,0.00,CLR,,0.00,WeatherDisplay:10.37,2013-03-04 17:20:00,
2013-03-04 12:25:00,40.3,0.0,29.03,SSE,165,2.0,5.0,18,0.00,CLR,,0.00,WeatherDisplay:10.37,2013-03-04 17:25:00,
2013-03-04 12:30:00,40.1,-0.1,29.03,SSE,166,2.0,4.0,18,0.00,CLR,,0.00,WeatherDisplay:10.37,2013-03-04 17:30:00,
2013-03-04 12:35:00,40.1,-0.1,29.03,SSE,156,2.0,4.0,18,0.00,CLR,,0.00,WeatherDisplay:10.37,2013-03-04 17:35:00,
2013-03-04 12:40:00,39.0,0.2,29.03,ESE,104,3.0,6.0,19,0.00,CLR,,0.00,WeatherDisplay:10.37,2013-03-04 17:40:00,
2013-03-04 12:45:00,38.6,-0.2,29.03,ESE,111,3.0,8.0,19,0.00,CLR,,0.00,WeatherDisplay:10.37,2013-03-04 17:45:00,
2013-03-04 12:50:00,38.8,0.0,29.03,ESE,122,5.0,6.0,19,0.00,CLR,,0.00,WeatherDisplay:10.37,2013-03-04 17:50:00,
2013-03-04 13:00:00,40.4,0.1,29.00,ESE,123,3.0,6.0,18,0.00,CLR,,0.00,WeatherDisplay:10.37,2013-03-04 18:00:00,
2013-03-04 13:05:00,40.5,0.3,29.00,ESE,109,6.0,8.0,18,0.00,CLR,,0.00,WeatherDisplay:10.37,2013-03-04 18:05:00,
2013-03-04 13:10:00,39.7,-0.5,29.01,East,85,6.0,6.0,18,0.00,CLR,,0.00,WeatherDisplay:10.37,2013-03-04 18:10:00,
2013-03-04 13:15:00,40.3,0.1,29.03,East,84,3.0,6.0,18,0.00,CLR,,0.00,WeatherDisplay:10.37,2013-03-04 18:15:00,
2013-03-04 13:25:00,41.7,1.2,29.03,ESE,120,3.0,6.0,18,0.00,CLR,,0.00,WeatherDisplay:10.37,2013-03-04 18:25:00,
2013-03-04 13:30:00,42.8,2.1,29.03,SE,134,3.0,6.0,18,0.00,CLR,,0.00,WeatherDisplay:10.37,2013-03-04 18:30:00,
2013-03-04 13:35:00,42.7,2.0,29.03,ESE,104,3.0,6.0,18,0.00,CLR,,0.00,WeatherDisplay:10.37,2013-03-04 18:35:00,
2013-03-04 13:40:00,42.5,1.9,29.00,ESE,112,3.0,6.0,18,0.00,CLR,,0.00,WeatherDisplay:10.37,2013-03-04 18:40:00,
2013-03-04 13:45:00,42.1,1.6,29.00,East,98,6.0,6.0,18,0.00,CLR,,0.00,WeatherDisplay:10.37,2013-03-04 18:45:00,
2013-03-04 13:55:00,40.9,0.6,29.00,East,97,3.0,8.0,18,0.00,CLR,,0.00,WeatherDisplay:10.37,2013-03-04 18:55:00,
2013-03-04 14:00:00,41.1,0.8,29.00,ESE,103,3.0,6.0,18,0.00,CLR,,0.00,WeatherDisplay:10.37,2013-03-04 19:00:00,
2013-03-04 14:05:00,41.1,0.7,29.00,East,96,2.0,4.0,18,0.00,CLR,,0.00,WeatherDisplay:10.37,2013-03-04 19:05:00,
2013-03-04 14:10:00,40.2,0.0,29.00,East,88,5.0,8.0,18,0.00,CLR,,0.00,WeatherDisplay:10.37,2013-03-04 19:10:00,
2013-03-04 14:15:00,40.5,0.2,29.00,East,98,2.0,6.0,18,0.00,CLR,,0.00,WeatherDisplay:10.37,2013-03-04 19:15:00,
2013-03-04 14:20:00,41.0,0.6,29.00,ESE,112,5.0,6.0,18,0.00,CLR,,0.00,WeatherDisplay:10.37,2013-03-04 19:20:00,
2013-03-04 14:25:00,41.8,1.3,29.00,ESE,119,3.0,6.0,18,0.00,CLR,,0.00,WeatherDisplay:10.37,2013-03-04 19:25:00,
2013-03-04 14:30:00,42.2,1.6,29.00,East,87,0.0,6.0,18,0.00,CLR,,0.00,WeatherDisplay:10.37,2013-03-04 19:30:00,
2013-03-04 14:35:00,42.5,1.9,29.00,East,93,2.0,5.0,18,0.00,CLR,,0.00,WeatherDisplay:10.37,2013-03-04 19:35:00,
2013-03-04 14:40:00,42.8,2.1,29.00,SE,132,0.0,6.0,18,0.00,CLR,,0.00,WeatherDisplay:10.37,2013-03-04 19:40:00,
2013-03-04 14:45:00,42.8,2.1,29.00,ESE,123,2.0,6.0,18,0.00,CLR,,0.00,WeatherDisplay:10.37,2013-03-04 19:45:00,
2013-03-04 14:50:00,42.1,1.6,29.00,East,92,6.0,8.0,18,0.00,CLR,,0.00,WeatherDisplay:10.37,2013-03-04 19:50:00,
2013-03-04 15:00:00,40.9,0.6,29.00,ENE,77,3.0,7.0,18,0.00,CLR,,0.00,WeatherDisplay:10.37,2013-03-04 20:00:00,
2013-03-04 15:10:00,41.5,1.0,29.00,East,94,5.0,6.0,18,0.00,CLR,,0.00,WeatherDisplay:10.37,2013-03-04 20:10:00,
2013-03-04 15:15:00,41.5,1.1,29.00,ESE,102,3.0,6.0,18,0.00,CLR,,0.00,WeatherDisplay:10.37,2013-03-04 20:15:00,
2013-03-04 15:20:00,40.5,0.2,29.00,East,92,6.0,8.0,18,0.00,CLR,,0.00,WeatherDisplay:10.37,2013-03-04 20:20:00,
2013-03-04 15:30:00,40.5,0.2,29.00,ESE,107,3.0,9.0,18,0.00,CLR,,0.00,WeatherDisplay:10.37,2013-03-04 20:30:00,
2013-03-04 15:35:00,40.7,0.4,29.00,ESE,102,6.0,8.0,18,0.00,CLR,,0.00,WeatherDisplay:10.37,2013-03-04 20:35:00,
2013-03-04 15:40:00,40.5,0.2,29.00,ESE,103,3.0,7.0,18,0.00,CLR,,0.00,WeatherDisplay:10.37,2013-03-04 20:40:00,
2013-03-04 15:45:00,40.3,0.1,29.00,ESE,110,3.0,6.0,18,0.00,CLR,,0.00,WeatherDisplay:10.37,2013-03-04 20:45:00,
2013-03-04 15:50:00,40.0,-0.1,29.00,ESE,105,3.0,6.0,18,0.00,CLR,,0.00,WeatherDisplay:10.37,2013-03-04 20:50:00,
2013-03-04 15:55:00,39.9,-0.2,29.00,ESE,116,3.0,6.0,18,0.00,CLR,,0.00,WeatherDisplay:10.37,2013-03-04 20:55:00,
2013-03-04 16:05:00,39.5,-0.6,29.00,ESE,111,3.0,6.0,18,0.00,CLR,,0.00,WeatherDisplay:10.37,2013-03-04 21:05:00,
2013-03-04 16:15:00,39.7,-0.4,28.97,ESE,104,5.0,6.0,18,0.00,CLR,,0.00,WeatherDisplay:10.37,2013-03-04 21:15:00,
2013-03-04 16:20:00,39.2,-0.8,28.97,East,87,5.0,6.0,18,0.00,CLR,,0.00,WeatherDisplay:10.37,2013-03-04 21:20:00,
2013-03-04 16:25:00,38.8,0.0,28.97,East,83,5.0,6.0,19,0.00,CLR,,0.00,WeatherDisplay:10.37,2013-03-04 21:25:00,
2013-03-04 16:30:00,38.7,-0.1,28.97,East,80,5.0,6.0,19,0.00,CLR,,0.00,WeatherDisplay:10.37,2013-03-04 21:30:00,
2013-03-04 16:35:00,38.2,-0.5,28.97,East,81,5.0,8.0,19,0.00,CLR,,0.00,WeatherDisplay:10.37,2013-03-04 21:35:00,
2013-03-04 16:40:00,38.1,-0.6,28.97,East,83,5.0,6.0,19,0.00,CLR,,0.00,WeatherDisplay:10.37,2013-03-04 21:40:00,
2013-03-04 16:45:00,38.0,-0.7,28.97,East,80,5.0,6.0,19,0.00,CLR,,0.00,WeatherDisplay:10.37,2013-03-04 21:45:00,
2013-03-04 16:55:00,38.1,-0.6,28.97,East,90,3.0,6.0,19,0.00,CLR,,0.00,WeatherDisplay:10.37,2013-03-04 21:55:00,
2013-03-04 17:00:00,38.0,-0.7,28.97,East,93,3.0,6.0,19,0.00,CLR,,0.00,WeatherDisplay:10.37,2013-03-04 22:00:00,
2013-03-04 17:05:00,37.9,-0.7,28.97,ESE,105,3.0,6.0,19,0.00,CLR,,0.00,WeatherDisplay:10.37,2013-03-04 22:05:00,
2013-03-04 17:10:00,38.0,-0.7,28.97,ESE,108,3.0,6.0,19,0.00,CLR,,0.00,WeatherDisplay:10.37,2013-03-04 22:10:00,
2013-03-04 17:20:00,37.6,-1.0,28.97,East,79,5.0,6.0,19,0.00,CLR,,0.00,WeatherDisplay:10.37,2013-03-04 22:20:00,
2013-03-04 17:25:00,37.4,-1.2,28.97,East,84,3.0,6.0,19,0.00,CLR,,0.00,WeatherDisplay:10.37,2013-03-04 22:25:00,
2013-03-04 17:30:00,37.2,-1.3,28.97,East,87,5.0,8.0,19,0.00,CLR,,0.00,WeatherDisplay:10.37,2013-03-04 22:30:00,
2013-03-04 17:35:00,37.0,-1.5,28.97,East,86,5.0,6.0,19,0.00,CLR,,0.00,WeatherDisplay:10.37,2013-03-04 22:35:00,
2013-03-04 17:40:00,37.0,-1.5,28.97,East,80,5.0,6.0,19,0.00,CLR,,0.00,WeatherDisplay:10.37,2013-03-04 22:40:00,
2013-03-04 17:45:00,36.9,-1.6,28.97,East,80,5.0,6.0,19,0.00,CLR,,0.00,WeatherDisplay:10.37,2013-03-04 22:45:00,
2013-03-04 17:50:00,36.7,-1.8,28.97,East,80,5.0,6.0,19,0.00,CLR,,0.00,WeatherDisplay:10.37,2013-03-04 22:50:00,
2013-03-04 18:00:00,36.5,-1.9,28.94,East,80,6.0,6.0,19,0.00,CLR,,0.00,WeatherDisplay:10.37,2013-03-04 23:00:00,
2013-03-04 18:05:00,36.5,-1.9,28.94,East,79,6.0,6.0,19,0.00,CLR,,0.00,WeatherDisplay:10.37,2013-03-04 23:05:00,
2013-03-04 18:10:00,36.4,-2.0,28.94,East,80,5.0,6.0,19,0.00,CLR,,0.00,WeatherDisplay:10.37,2013-03-04 23:10:00,
2013-03-04 18:15:00,36.3,-2.1,28.94,East,79,5.0,6.0,19,0.00,CLR,,0.00,WeatherDisplay:10.37,2013-03-04 23:15:00,
2013-03-04 18:20:00,36.3,-2.1,28.94,ENE,78,5.0,8.0,19,0.00,CLR,,0.00,WeatherDisplay:10.37,2013-03-04 23:20:00,
2013-03-04 18:30:00,36.0,-2.4,28.94,ENE,78,5.0,6.0,19,0.00,CLR,,0.00,WeatherDisplay:10.37,2013-03-04 23:30:00,
2013-03-04 18:35:00,35.8,-2.5,28.94,ENE,78,5.0,8.0,19,0.00,CLR,,0.00,WeatherDisplay:10.37,2013-03-04 23:35:00,
2013-03-04 18:40:00,35.8,-2.5,28.97,East,84,3.0,6.0,19,0.00,CLR,,0.00,WeatherDisplay:10.37,2013-03-04 23:40:00,
2013-03-04 18:45:00,35.6,-2.7,28.97,East,83,5.0,6.0,19,0.00,CLR,,0.00,WeatherDisplay:10.37,2013-03-04 23:45:00,
2013-03-04 18:50:00,35.6,-2.7,28.97,East,80,3.0,6.0,19,0.00,CLR,,0.00,WeatherDisplay:10.37,2013-03-04 23:50:00,
2013-03-04 18:55:00,35.4,-1.8,28.94,ENE,77,6.0,6.0,20,0.00,CLR,,0.00,WeatherDisplay:10.37,2013-03-04 23:55:00,
2013-03-04 19:00:00,35.2,-1.9,28.94,ENE,78,5.0,6.0,20,0.00,CLR,,0.00,WeatherDisplay:10.37,2013-03-05 00:00:00,
2013-03-04 19:05:00,35.1,-2.1,28.94,East,81,5.0,6.0,20,0.00,CLR,,0.00,WeatherDisplay:10.37,2013-03-05 00:05:00,
2013-03-04 19:10:00,35.1,-2.1,28.94,East,79,5.0,8.0,20,0.00,CLR,,0.00,WeatherDisplay:10.37,2013-03-05 00:10:00,
2013-03-04 19:15:00,35.1,-2.1,28.94,East,79,6.0,8.0,20,0.00,CLR,,0.00,WeatherDisplay:10.37,2013-03-05 00:15:00,
2013-03-04 19:20:00,35.1,-2.1,28.94,East,79,6.0,9.0,20,0.00,CLR,,0.00,WeatherDisplay:10.37,2013-03-05 00:20:00,
2013-03-04 19:30:00,35.0,-2.1,28.94,East,79,6.0,8.0,20,0.00,CLR,,0.00,WeatherDisplay:10.37,2013-03-05 00:30:00,
2013-03-04 19:35:00,34.9,-2.2,28.94,ENE,76,7.0,8.0,20,0.00,CLR,,0.00,WeatherDisplay:10.37,2013-03-05 00:35:00,
2013-03-04 19:40:00,34.9,-2.2,28.94,ENE,78,6.0,8.0,20,0.00,CLR,,0.00,WeatherDisplay:10.37,2013-03-05 00:40:00,
2013-03-04 19:50:00,34.7,-2.4,28.94,East,83,6.0,8.0,20,0.00,CLR,,0.00,WeatherDisplay:10.37,2013-03-05 00:50:00,
2013-03-04 19:55:00,34.7,-2.4,28.94,East,81,5.0,6.0,20,0.00,CLR,,0.00,WeatherDisplay:10.37,2013-03-05 00:55:00,
2013-03-04 20:00:00,34.7,-2.4,28.94,ENE,78,6.0,8.0,20,0.00,CLR,,0.00,WeatherDisplay:10.37,2013-03-05 01:00:00,
2013-03-04 20:05:00,34.7,-2.4,28.94,East,81,5.0,6.0,20,0.00,CLR,,0.00,WeatherDisplay:10.37,2013-03-05 01:05:00,
2013-03-04 20:10:00,34.7,-2.4,28.97,East,84,3.0,6.0,20,0.00,CLR,,0.00,WeatherDisplay:10.37,2013-03-05 01:10:00,
2013-03-04 20:15:00,34.5,-2.5,28.97,East,85,5.0,6.0,20,0.00,CLR,,0.00,WeatherDisplay:10.37,2013-03-05 01:15:00,
2013-03-04 20:20:00,34.5,-2.5,28.97,East,83,3.0,6.0,20,0.00,CLR,,0.00,WeatherDisplay:10.37,2013-03-05 01:20:00,
2013-03-04 20:25:00,34.5,-2.5,28.97,East,84,3.0,6.0,20,0.00,CLR,,0.00,WeatherDisplay:10.37,2013-03-05 01:25:00,
2013-03-04 20:30:00,34.5,-2.5,28.97,East,82,2.0,5.0,20,0.00,CLR,,0.00,WeatherDisplay:10.37,2013-03-05 01:30:00,
2013-03-04 20:35:00,34.5,-2.5,28.97,East,83,3.0,6.0,20,0.00,CLR,,0.00,WeatherDisplay:10.37,2013-03-05 01:35:00,
2013-03-04 20:40:00,34.5,-2.5,28.97,East,83,2.0,5.0,20,0.00,CLR,,0.00,WeatherDisplay:10.37,2013-03-05 01:40:00,
2013-03-04 20:45:00,34.5,-2.5,28.97,East,92,2.0,4.0,20,0.00,CLR,,0.00,WeatherDisplay:10.37,2013-03-05 01:45:00,
2013-03-04 20:55:00,34.3,-2.7,29.00,ESE,115,2.0,5.0,20,0.00,CLR,,0.00,WeatherDisplay:10.37,2013-03-05 01:55:00,
2013-03-04 21:05:00,34.0,-2.9,29.00,ESE,105,6.0,6.0,20,0.00,CLR,,0.00,WeatherDisplay:10.37,2013-03-05 02:05:00,
2013-03-04 21:10:00,33.8,-1.1,29.00,ESE,102,3.0,6.0,22,0.00,CLR,,0.00,WeatherDisplay:10.37,2013-03-05 02:10:00,
2013-03-04 21:20:00,33.4,1.3,29.00,ESE,107,3.0,6.0,25,0.00,CLR,,0.00,WeatherDisplay:10.37,2013-03-05 02:20:00,
2013-03-04 21:30:00,33.2,5.0,29.00,East,79,1.0,4.0,30,0.00,CLR,,0.00,WeatherDisplay:10.37,2013-03-05 02:30:00,
2013-03-04 21:35:00,33.1,5.0,29.00,East,79,3.0,6.0,30,0.00,CLR,,0.00,WeatherDisplay:10.37,2013-03-05 02:35:00,
2013-03-04 21:40:00,33.1,5.7,29.00,East,81,3.0,5.0,31,0.00,CLR,,0.00,WeatherDisplay:10.37,2013-03-05 02:40:00,
2013-03-04 21:45:00,33.1,5.7,29.00,East,84,3.0,4.0,31,0.00,CLR,,0.00,WeatherDisplay:10.37,2013-03-05 02:45:00,
2013-03-04 21:50:00,32.9,5.5,29.00,East,82,5.0,6.0,31,0.00,CLR,,0.00,WeatherDisplay:10.37,2013-03-05 02:50:00,
2013-03-04 21:55:00,32.9,6.2,29.00,East,81,3.0,6.0,32,0.00,CLR,,0.00,WeatherDisplay:10.37,2013-03-05 02:55:00,
2013-03-04 22:05:00,32.7,6.1,29.00,ENE,72,5.0,6.0,32,0.00,CLR,,0.00,WeatherDisplay:10.37,2013-03-05 03:05:00,
2013-03-04 22:15:00,32.5,6.6,29.00,East,79,6.0,8.0,33,0.00,CLR,,0.00,WeatherDisplay:10.37,2013-03-05 03:15:00,
2013-03-04 22:20:00,32.5,6.6,29.00,ENE,76,5.0,6.0,33,0.00,CLR,,0.00,WeatherDisplay:10.37,2013-03-05 03:20:00,
2013-03-04 22:25:00,32.4,7.1,29.00,ENE,74,6.0,8.0,34,0.00,CLR,,0.00,WeatherDisplay:10.37,2013-03-05 03:25:00,
2013-03-04 22:30:00,32.2,6.9,29.00,ENE,74,6.0,8.0,34,0.00,CLR,,0.00,WeatherDisplay:10.37,2013-03-05 03:30:00,
2013-03-04 22:35:00,32.2,6.9,29.00,ENE,73,6.0,8.0,34,0.00,CLR,,0.00,WeatherDisplay:10.37,2013-03-05 03:35:00,
2013-03-04 22:40:00,32.2,7.6,29.00,ENE,73,5.0,8.0,35,0.00,CLR,,0.00,WeatherDisplay:10.37,2013-03-05 03:40:00,
2013-03-04 22:45:00,32.0,8.0,29.00,ENE,74,5.0,8.0,36,0.00,CLR,,0.00,WeatherDisplay:10.37,2013-03-05 03:45:00,
2013-03-04 22:50:00,32.0,8.0,29.00,ENE,75,5.0,6.0,36,0.00,CLR,,0.00,WeatherDisplay:10.37,2013-03-05 03:50:00,
2013-03-04 22:55:00,32.0,8.0,29.00,ENE,77,5.0,6.0,36,0.00,CLR,,0.00,WeatherDisplay:10.37,2013-03-05 03:55:00,
2013-03-04 23:00:00,32.0,8.6,29.00,East,84,6.0,6.0,37,0.00,CLR,,0.00,WeatherDisplay:10.37,2013-03-05 04:00:00,
2013-03-04 23:05:00,31.8,8.5,29.00,East,83,6.0,8.0,37,0.00,CLR,,0.00,WeatherDisplay:10.37,2013-03-05 04:05:00,
2013-03-04 23:10:00,31.8,9.1,29.00,East,81,6.0,8.0,38,0.00,CLR,,0.00,WeatherDisplay:10.37,2013-03-05 04:10:00,
2013-03-04 23:15:00,31.8,9.1,29.00,East,79,5.0,6.0,38,0.00,CLR,,0.00,WeatherDisplay:10.37,2013-03-05 04:15:00,
2013-03-04 23:20:00,31.8,9.6,29.00,East,81,5.0,8.0,39,0.00,CLR,,0.00,WeatherDisplay:10.37,2013-03-05 04:20:00,
2013-03-04 23:25:00,31.8,10.2,29.00,East,79,6.0,7.0,40,0.00,CLR,,0.00,WeatherDisplay:10.37,2013-03-05 04:25:00,
2013-03-04 23:30:00,32.0,10.4,29.00,ENE,77,5.0,6.0,40,0.00,CLR,,0.00,WeatherDisplay:10.37,2013-03-05 04:30:00,
2013-03-04 23:40:00,32.0,10.4,28.97,ENE,75,7.0,8.0,40,0.00,CLR,,0.00,WeatherDisplay:10.37,2013-03-05 04:40:00,
2013-03-04 23:45:00,32.0,9.8,28.97,ENE,73,6.0,8.0,39,0.00,CLR,,0.00,WeatherDisplay:10.37,2013-03-05 04:45:00,
2013-03-04 23:50:00,32.0,10.4,28.97,ENE,71,6.0,9.0,40,0.00,CLR,,0.00,WeatherDisplay:10.37,2013-03-05 04:50:00,
2013-03-04 23:55:00,31.8,10.2,28.97,ENE,68,7.0,10.0,40,0.00,CLR,,0.00,WeatherDisplay:10.37,2013-03-05 04:55:00,